Theta_e
325 320 328 330 331 330 331 331 332 336 340 339 340 337 335 334 324 324 321 324 339 340 341 341 340 339 338 336 337 333 332 331 323 327 332 335 334 332 337 338 341 339 339
321 322 321 329 329 329 329 330 331 328 330 332 337 336 334 329 320 317 313 326 330 335 337 335 335 336 337 335 332 328 325 328 324 320 324 325 326 330 331 333 336 342 339
319 317 321 321 324 326 326 326 328 324 324 326 328 330 331 329 327 331 330 331 327 329 331 331 332 331 329 328 329 328 325 325 322 319 318 320 320 321 321 324 333 335 338
316 316 317 317 323 324 324 323 322 321 320 321 322 326 326 327 327 327 328 330 328 328 330 329 328 326 327 327 327 326 324 322 320 320 317 317 318 321 324 323 326 329 330
314 314 315 317 317 321 320 320 321 319 319 319 319 322 323 326 323 326 325 328 329 328 330 327 328 327 327 327 326 325 322 318 316 314 313 312 312 315 314 317 320 325 327
314 313 313 314 315 315 319 319 320 319 318 318 318 321 322 323 310 309 324 328 329 328 326 325 326 320 317 313 312 312 316 317 316 314 312 311 314 316 317 317 318 317 316
312 312 312 312 312 313 313 318 318 318 316 314 316 317 318 321 312 306 306 326 326 326 325 325 323 323 321 321 311 310 309 308 310 316 315 316 316 318 319 319 319 320 319
309 308 309 310 310 311 312 312 316 318 316 315 315 316 317 319 307 304 305 318 323 328 327 327 327 325 322 323 323 318 318 319 316 314 314 316 319 322 323 319 316 316 317
307 307 306 307 305 305 307 312 313 316 316 315 314 313 313 316 308 305 308 319 318 319 324 329 328 327 316 306 323 321 322 322 315 308 309 307 304 300 303 309 310 312 314
305 305 306 305 305 304 304 305 310 311 314 315 315 316 313 315 307 301 306 320 318 318 316 327 312 323 310 304 320 321 319 319 320 319 320 311 305 312 305 309 314 314 316
305 305 305 305 304 305 304 303 304 308 309 311 312 314 314 315 317 303 300 314 316 319 319 320 322 305 304 303 306 322 318 320 317 318 317 315 316 317 318 319 320 320 319
304 302 303 303 302 302 303 302 303 304 304 305 308 311 312 314 307 305 299 300 312 320 320 321 321 306 301 299 301 307 303 307 316 313 311 311 312 313 314 317 323 329 329
301 301 302 301 300 301 300 300 301 301 300 301 301 303 308 311 312 303 301 297 299 312 321 317 304 301 299 301 300 302 300 313 313 311 310 311 313 314 316 317 327 329 330
298 298 299 298 299 299 299 299 299 299 299 300 301 301 303 307 310 312 312 309 300 305 308 316 313 308 305 310 308 305 313 314 313 311 312 313 314 313 313 315 321 323 326
296 296 297 297 297 297 298 299 298 300 300 299 300 301 302 303 305 297 300 308 303 306 309 316 316 316 315 315 317 315 314 314 312 312 313 312 312 313 313 316 320 321 321
294 294 294 295 296 296 296 297 296 295 295 293 294 297 301 298 294 295 295 294 292 292 303 311 313 314 313 315 315 314 314 311 314 315 314 314 313 312 312 316 320 321 321
294 294 294 294 295 294 294 295 294 296 294 293 292 291 292 293 294 292 293 293 293 294 299 310 311 313 314 314 316 314 314 315 316 315 314 313 313 313 311 318 318 323 319
293 293 293 293 292 291 291 291 292 291 291 292 294 293 292 291 291 291 291 293 296 298 301 302 312 312 314 314 314 316 315 315 315 315 315 314 314 314 316 317 318 321 319
290 290 291 291 291 290 290 290 291 291 290 290 292 293 293 292 292 291 290 295 295 297 300 303 308 313 313 314 316 315 315 315 314 313 313 314 316 317 317 318 319 303 308
288 289 288 289 289 289 289 289 289 290 290 290 290 292 293 292 293 293 295 296 296 297 300 302 306 309 311 313 313 313 312 312 314 314 314 317 318 320 318 320 322 321 319
287 288 287 288 288 289 289 289 289 289 290 291 291 293 291 294 294 295 295 297 298 299 300 302 306 307 309 310 311 311 311 312 313 313 314 315 316 319 321 323 322 321 322
289 289 290 290 291 291 291 292 292 292 292 292 293 294 288 293 296 296 297 297 300 302 304 305 306 308 308 309 309 311 314 314 315 316 317 318 320 320 323 322 320 322 322
292 292 293 294 297 295 297 299 302 300 297 298 297 296 293 294 296 297 298 299 301 303 305 306 307 308 310 311 312 312 311 312 314 317 318 320 322 323 322 321 321 321 321
299 298 298 297 297 298 297 297 298 295 298 301 299 296 296 296 298 299 299 301 302 304 305 306 307 309 309 311 314 313 315 315 317 319 323 323 323 314 322 321 321 321 317
296 296 295 295 295 294 294 294 294 295 295 297 300 300 300 300 300 300 301 303 304 304 305 306 308 308 309 311 314 314 308 291 304 306 324 325 323 323 321 322 321 320 318
292 292 292 292 292 292 292 291 291 292 292 294 295 299 300 301 302 302 303 305 305 306 307 308 310 310 310 312 312 304 294 293 301 292 319 324 322 321 321 321 321 317 315
Wind_Speed
5 8 10 8 7 9 8 9 9 10 11 15 15 6 9 10 5 2 5 24 11 8 6 8 9 7 4 4 2 1 4 3 6 6 4 5 3 4 5 6 6 6 6
9 6 9 4 4 5 6 7 8 10 12 17 14 10 8 10 10 12 8 28 7 8 8 7 7 6 7 5 2 2 2 4 2 3 3 3 4 4 5 7 6 5 5
5 7 8 6 8 5 7 8 7 9 12 19 16 14 11 13 11 12 24 17 6 3 6 9 8 5 5 3 3 3 3 4 4 3 4 3 3 4 6 6 6 4 4
8 10 10 9 8 8 8 11 9 5 5 10 14 22 8 2 3 5 5 5 6 6 6 5 7 7 6 5 3 3 2 2 3 3 4 4 4 5 3 4 5 3 5
9 10 10 10 12 9 9 11 12 10 7 9 8 15 22 6 9 8 10 10 7 7 7 7 8 8 8 6 4 4 3 1 2 3 4 4 4 4 5 4 4 4 5
11 12 11 12 13 13 10 8 9 10 9 10 7 5 11 14 20 7 7 5 6 6 6 6 6 11 9 11 8 7 5 3 3 2 4 4 5 4 4 6 6 6 5
11 14 15 14 15 14 14 9 9 10 11 12 9 5 6 5 20 15 11 4 6 5 6 7 8 7 9 7 9 9 8 10 10 6 6 5 5 5 5 8 7 7 8
13 14 15 15 15 16 13 14 9 10 11 12 12 12 10 10 11 6 5 5 5 6 8 6 6 7 11 11 9 9 9 9 9 8 9 10 8 8 7 5 7 7 9
13 15 15 15 15 14 20 12 10 10 11 11 13 14 15 14 14 12 5 3 2 8 13 12 11 9 9 14 9 8 9 8 7 11 12 11 10 10 9 4 8 7 10
14 14 13 13 15 16 15 14 14 7 11 10 12 13 16 13 13 12 7 4 6 7 20 9 14 14 14 14 10 7 6 8 5 5 3 3 8 9 13 8 7 8 9
14 14 15 15 14 16 13 11 13 13 11 13 13 11 13 11 11 14 15 11 9 8 7 14 9 14 15 16 16 10 12 6 7 4 3 3 5 6 5 6 9 8 8
13 15 17 14 12 12 16 12 12 11 11 11 12 13 11 10 15 15 12 15 14 13 11 11 11 16 17 17 14 14 13 8 4 3 4 4 5 6 5 6 7 7 9
16 14 14 15 13 13 13 14 11 13 11 11 10 10 11 10 11 12 14 16 20 11 10 12 8 5 14 17 20 18 13 6 5 5 6 6 6 5 6 7 6 6 10
15 15 13 15 15 14 12 13 12 13 13 14 13 12 12 11 11 10 9 9 13 9 11 10 10 5 7 9 9 6 9 8 8 6 6 5 4 4 7 7 3 5 7
15 15 15 12 14 14 13 12 12 14 12 12 13 12 11 11 11 5 6 7 5 5 11 10 10 10 8 5 7 8 9 7 7 6 6 8 7 7 8 5 3 5 8
14 12 11 10 10 9 10 10 16 20 16 14 17 13 10 12 4 5 6 7 9 11 5 13 12 11 11 10 9 9 9 10 9 9 8 8 8 6 8 5 2 6 9
14 13 10 10 9 10 10 11 11 9 11 12 14 15 14 15 19 7 4 4 8 11 6 9 11 10 10 12 10 11 10 10 10 9 9 8 8 6 6 3 3 6 3
14 17 11 9 10 9 10 11 10 11 11 11 16 18 17 16 16 15 6 4 8 7 7 8 10 10 10 10 12 11 9 6 7 8 7 6 5 5 5 3 5 7 4
11 10 10 9 9 12 11 11 11 12 12 12 10 13 19 24 23 15 15 9 8 9 8 8 9 6 9 10 6 9 7 6 5 5 5 5 5 4 4 4 6 7 5
11 19 16 10 10 11 10 11 11 12 12 10 10 11 9 10 11 11 12 11 12 11 9 10 9 8 6 7 9 8 5 3 3 2 3 3 3 3 4 5 6 5 7
9 9 12 10 10 10 10 11 10 10 10 10 11 11 12 11 9 9 10 13 12 11 12 12 10 9 7 5 4 3 3 4 4 6 8 5 5 5 4 7 8 6 8
8 8 8 8 8 9 10 10 10 9 10 10 9 8 15 11 9 9 9 10 10 11 11 11 10 8 1 5 8 4 1 4 2 4 5 7 6 6 6 7 4 4 6
6 7 8 7 7 6 5 7 3 3 6 7 8 8 9 10 9 9 9 10 10 11 10 8 6 3 2 4 3 3 6 6 8 8 9 6 6 6 5 5 6 4 7
6 6 8 7 7 6 6 7 7 7 8 3 3 5 7 8 8 9 8 9 9 9 9 9 7 6 4 7 7 7 9 9 8 10 9 7 6 5 8 7 7 7 7
9 9 8 8 8 8 8 8 8 8 9 8 5 5 5 6 7 7 8 9 9 9 11 11 9 10 11 12 12 9 10 5 6 8 4 7 8 11 7 5 5 10 13
11 11 10 9 9 9 9 8 9 9 9 8 8 6 3 3 3 6 6 9 9 9 11 10 11 15 14 13 15 10 7 7 6 7 6 6 7 6 5 6 14 11 13
Wind_Direction
35 4 348 10 358 344 322 330 332 322 286 278 280 271 214 186 147 253 351 282 222 168 157 169 160 169 214 242 284 204 252 248 245 274 247 244 236 274 257 237 230 234 246
335 345 323 334 331 327 316 322 333 330 330 304 272 260 209 226 170 169 143 270 244 167 174 162 178 182 206 233 214 233 246 277 161 254 250 266 261 279 268 253 239 217 251
323 319 311 317 316 328 316 336 347 8 344 317 323 283 215 203 192 205 173 218 217 185 149 151 164 170 178 179 160 66 20 26 18 8 314 314 303 297 291 277 237 244 257
317 321 309 307 275 274 288 308 310 320 344 316 334 317 248 231 202 139 178 200 203 216 165 166 132 153 191 173 136 92 23 325 333 322 318 291 273 295 327 346 326 310 282
290 292 290 295 292 254 259 270 282 295 306 306 353 318 314 223 220 201 195 193 201 187 173 144 148 164 158 164 130 154 143 62 341 329 308 308 314 347 328 310 312 328 312
291 282 279 292 284 285 259 240 258 277 284 294 316 359 313 323 344 225 155 180 180 170 154 156 159 137 152 144 146 155 164 171 227 238 263 278 288 305 313 305 312 311 307
279 274 281 275 275 273 278 245 233 248 262 271 276 268 284 301 292 285 318 223 176 191 179 172 185 171 164 172 194 198 209 212 212 209 234 246 273 272 289 296 286 289 287
304 305 306 300 286 279 272 282 236 220 232 248 260 268 265 257 255 309 225 293 304 222 184 189 195 195 185 185 186 204 212 214 222 222 225 244 248 258 251 267 276 277 274
274 279 279 293 299 312 314 259 271 241 215 230 242 255 257 254 257 256 169 174 251 294 273 186 197 205 206 193 195 200 200 215 207 209 215 218 243 278 266 299 278 280 285
271 275 284 287 289 290 287 323 304 278 287 241 236 237 243 250 259 261 178 200 181 184 267 245 199 203 205 187 189 204 212 223 208 256 211 217 235 249 248 214 243 252 272
276 281 275 268 277 281 281 279 285 303 279 276 269 249 248 255 256 244 212 232 236 214 230 262 254 216 222 199 199 200 216 201 217 216 257 264 259 247 247 223 212 215 249
282 280 276 275 267 269 272 273 273 269 276 291 284 266 256 259 237 250 238 219 238 237 220 233 233 215 210 205 193 208 200 168 176 214 245 257 259 265 262 264 239 221 235
276 264 271 274 265 255 257 267 264 250 256 261 254 267 262 256 248 252 235 212 230 238 230 232 80 293 239 210 198 197 194 190 196 214 239 251 246 257 268 273 248 249 259
274 268 261 258 256 251 255 250 247 255 254 252 247 248 249 263 251 243 250 229 226 226 246 250 250 230 206 220 208 238 202 203 202 214 233 249 258 268 272 271 259 282 276
283 278 265 261 259 254 248 248 247 246 244 248 251 250 253 249 254 76 59 262 348 316 247 223 232 240 239 208 213 194 199 199 204 216 237 247 252 260 262 251 233 276 268
271 271 267 266 266 267 268 261 243 243 243 236 243 248 255 251 198 127 86 32 3 20 299 224 220 222 224 224 205 202 191 196 205 211 212 224 241 246 270 254 216 256 258
278 271 268 264 266 261 254 254 256 251 253 245 242 243 239 251 266 193 125 30 335 341 313 258 222 220 220 225 218 207 206 209 210 213 223 231 234 238 245 205 238 269 233
291 288 277 268 257 256 252 251 256 257 257 253 236 232 235 234 231 246 180 147 278 270 272 276 235 216 226 221 232 231 224 224 225 223 216 208 214 223 244 193 247 248 204
280 276 269 262 255 252 254 254 249 247 241 244 243 233 228 237 241 229 179 234 237 241 247 265 247 232 214 240 226 231 223 218 222 226 217 208 229 207 211 202 253 235 206
277 265 260 262 261 257 251 248 245 245 245 237 231 234 217 219 224 224 223 215 214 219 226 251 241 239 249 212 218 233 234 205 183 265 257 254 234 206 217 233 235 222 210
270 268 257 256 256 257 256 255 249 244 242 235 232 223 201 213 213 210 203 209 208 208 212 224 247 221 236 251 279 252 242 245 204 227 226 225 233 237 211 221 225 201 223
259 264 265 261 263 261 253 254 249 243 241 237 231 213 186 203 211 198 197 200 202 202 205 210 232 239 29 284 236 246 258 270 287 267 234 238 226 224 216 220 180 241 213
260 267 271 273 272 277 261 277 316 230 241 239 224 197 177 192 201 190 184 187 200 195 199 208 206 220 237 322 264 205 232 246 241 242 248 237 222 212 199 167 167 200 222
5 8 14 11 6 10 6 5 10 9 358 33 86 124 156 173 180 173 171 178 184 187 179 202 209 183 200 256 252 227 231 236 246 250 217 219 210 192 169 170 185 217 118
13 14 16 16 18 15 10 12 15 15 12 12 38 96 129 147 155 166 178 176 176 178 181 194 200 207 213 230 250 248 257 281 289 282 239 218 196 176 167 176 176 130 117
19 21 20 18 21 18 17 19 19 19 22 17 22 34 67 137 158 164 181 177 176 177 181 197 202 201 219 225 224 222 245 286 290 249 249 212 161 162 170 193 132 119 119